timestamp,surface_pressure_avg,surface_temp_avg,battery_voltage,lat,long
2017-09-13 00:00:00+00:00,230.4148,13.7,12.65,47.84626,-54.09684
2017-09-13 00:10:00+00:00,233.0731,13.6,12.57,47.84626,-54.09684
2017-09-13 00:20:00+00:00,232.2014,13.7,12.65,47.84626,-54.09684
2017-09-13 00:30:00+00:00,232.7515,13.6,12.65,47.84626,-54.09684
2017-09-13 00:40:00+00:00,239.6731,13.6,12.65,47.84626,-54.09684
2017-09-13 00:50:00+00:00,246.0531,13.6,12.65,47.84626,-54.09684
2017-09-13 01:00:00+00:00,246.2097,13.6,12.65,47.84626,-54.09684
2017-09-13 01:10:00+00:00,250.1547,13.6,12.57,47.84626,-54.09684
2017-09-13 01:20:00+00:00,260.2698,13.6,12.65,47.84626,-54.09684
2017-09-13 01:30:00+00:00,264.9565,13.6,12.65,47.84626,-54.09684
2017-09-13 01:40:00+00:00,264.2013,13.61,12.65,47.84626,-54.09684
2017-09-13 01:50:00+00:00,270.1797,13.67,12.65,47.84626,-54.09684
2017-09-13 02:00:00+00:00,283.2864,13.6,12.57,47.84626,-54.09684
2017-09-13 02:10:00+00:00,291.8081,13.6,12.57,47.84626,-54.09684
2017-09-13 02:20:00+00:00,294.4963,13.6,12.65,47.84626,-54.09684
2017-09-13 02:30:00+00:00,302.1913,13.6,12.65,47.84626,-54.09684
2017-09-13 02:40:00+00:00,312.858,13.57,12.65,47.84626,-54.09684
2017-09-13 02:50:00+00:00,319.4714,13.58,12.65,47.84626,-54.09684
2017-09-13 03:00:00+00:00,318.2047,13.6,12.57,47.84626,-54.09684
2017-09-13 03:10:00+00:00,320.9497,13.5,12.57,47.84626,-54.09684
2017-09-13 03:20:00+00:00,330.5714,13.5,12.65,47.84626,-54.09684
2017-09-13 03:30:00+00:00,337.3812,13.5,12.65,47.84626,-54.09684
2017-09-13 03:40:00+00:00,333.5964,13.59,12.65,47.84626,-54.09684
2017-09-13 03:50:00+00:00,334.8014,13.5,12.65,47.84626,-54.09684
2017-09-13 04:00:00+00:00,337.9565,13.58,12.57,47.84626,-54.09684
2017-09-13 04:10:00+00:00,335.2596,13.6,12.57,47.84626,-54.09684
2017-09-13 04:20:00+00:00,329.8596,13.69,12.65,47.84626,-54.09684
2017-09-13 04:30:00+00:00,333.3613,13.69,12.57,47.84626,-54.09684
2017-09-13 04:40:00+00:00,339.8264,13.7,12.65,47.84626,-54.09684
2017-09-13 04:50:00+00:00,337.1163,13.69,12.65,47.84626,-54.09684
2017-09-13 05:00:00+00:00,332.0365,13.69,12.57,47.84626,-54.09684
2017-09-13 05:10:00+00:00,334.7614,13.69,12.57,47.84626,-54.09684
2017-09-13 05:20:00+00:00,336.788,13.69,12.57,47.84626,-54.09684
2017-09-13 05:30:00+00:00,331.8214,13.71,12.57,47.84626,-54.09684
2017-09-13 05:40:00+00:00,332.0447,13.5,12.57,47.84626,-54.09684
2017-09-13 05:50:00+00:00,334.9915,13.5,12.65,47.84626,-54.09684
2017-09-13 06:00:00+00:00,333.1663,13.57,12.57,47.84626,-54.09684
2017-09-13 06:10:00+00:00,325.8996,13.6,12.57,47.84626,-54.09684
2017-09-13 06:20:00+00:00,323.598,13.6,12.57,47.84626,-54.09684
2017-09-13 06:30:00+00:00,325.6279,13.6,12.57,47.84626,-54.09684
2017-09-13 06:40:00+00:00,318.1913,13.6,12.57,47.84626,-54.09684
2017-09-13 06:50:00+00:00,308.1046,13.69,12.57,47.84626,-54.09684
2017-09-13 07:00:00+00:00,299.283,13.7,12.57,47.84626,-54.09684
2017-09-13 07:10:00+00:00,295.008,13.7,12.57,47.84626,-54.09684
2017-09-13 07:20:00+00:00,284.563,13.7,12.57,47.84626,-54.09684
2017-09-13 07:30:00+00:00,274.9014,13.74,12.57,47.84626,-54.09684
2017-09-13 07:40:00+00:00,267.7931,13.7,12.57,47.84626,-54.09684
2017-09-13 07:50:00+00:00,263.9764,13.75,12.57,47.84626,-54.09684
2017-09-13 08:00:00+00:00,251.6864,13.78,12.57,47.84626,-54.09684
2017-09-13 08:10:00+00:00,241.6431,13.79,12.57,47.84626,-54.09684
2017-09-13 08:20:00+00:00,238.5481,13.78,12.57,47.84626,-54.09684
2017-09-13 08:30:00+00:00,232.5298,13.8,12.57,47.84626,-54.09684
2017-09-13 08:40:00+00:00,223.1764,13.8,12.57,47.84626,-54.09684
2017-09-13 08:50:00+00:00,218.0198,13.8,12.57,47.84626,-54.09684
2017-09-13 09:00:00+00:00,215.8948,13.82,12.57,47.84626,-54.09684
2017-09-13 09:10:00+00:00,211.5448,13.86,12.49,47.84626,-54.09684
2017-09-13 09:20:00+00:00,211.7781,13.8,12.57,47.84626,-54.09684
2017-09-13 09:30:00+00:00,212.9965,13.8,12.57,47.84626,-54.09684
2017-09-13 09:40:00+00:00,209.6764,13.8,12.57,47.84626,-54.09684
2017-09-13 09:50:00+00:00,209.7114,13.8,12.57,47.84626,-54.09684
2017-09-13 10:00:00+00:00,213.4998,13.81,12.57,47.84626,-54.09684
2017-09-13 10:10:00+00:00,214.1015,13.88,12.49,47.84626,-54.09684
2017-09-13 10:20:00+00:00,215.0098,13.87,12.57,47.84626,-54.09684
2017-09-13 10:30:00+00:00,218.0331,13.87,12.65,47.84626,-54.09684
2017-09-13 10:40:00+00:00,221.3682,13.89,12.89,47.84626,-54.09684
2017-09-13 10:50:00+00:00,224.2264,13.9,12.81,47.84626,-54.09684
2017-09-13 11:00:00+00:00,225.9882,13.9,12.65,47.84626,-54.09684
2017-09-13 11:10:00+00:00,227.3964,13.9,12.65,47.84626,-54.09684
2017-09-13 11:20:00+00:00,231.1764,13.9,12.73,47.84626,-54.09684
2017-09-13 11:30:00+00:00,237.0131,13.9,12.73,47.84626,-54.09684
2017-09-13 11:40:00+00:00,237.6064,13.88,12.73,47.84626,-54.09684
2017-09-13 11:50:00+00:00,236.1032,13.9,12.73,47.84626,-54.09684
2017-09-13 12:00:00+00:00,238.993,13.9,12.65,47.84626,-54.09684
2017-09-13 12:10:00+00:00,244.2914,13.9,12.65,47.84626,-54.09684
2017-09-13 12:20:00+00:00,245.3914,13.9,12.73,47.84626,-54.09684
2017-09-13 12:30:00+00:00,244.6948,13.9,12.73,47.84626,-54.09684
2017-09-13 12:40:00+00:00,247.6148,13.9,12.81,47.84626,-54.09684
2017-09-13 12:50:00+00:00,252.5748,13.9,12.89,47.84626,-54.09684
2017-09-13 13:00:00+00:00,254.8864,13.9,12.81,47.84626,-54.09684
2017-09-13 13:10:00+00:00,257.6197,13.9,12.73,47.84626,-54.09684
2017-09-13 13:20:00+00:00,264.2947,13.9,12.81,47.84626,-54.09684
2017-09-13 13:30:00+00:00,271.6614,13.9,12.81,47.84626,-54.09684
2017-09-13 13:40:00+00:00,274.3181,13.9,12.89,47.84626,-54.09684
2017-09-13 13:50:00+00:00,276.7364,13.81,12.89,47.84626,-54.09684
2017-09-13 14:00:00+00:00,282.8314,13.9,12.81,47.84626,-54.09684
2017-09-13 14:10:00+00:00,287.7196,13.93,12.73,47.84626,-54.09684
2017-09-13 14:20:00+00:00,289.3463,13.8,12.89,47.84626,-54.09684
2017-09-13 14:30:00+00:00,295.6747,13.79,12.97,47.84626,-54.09684
2017-09-13 14:40:00+00:00,304.0814,13.89,12.97,47.84626,-54.09684
2017-09-13 14:50:00+00:00,308.9247,13.9,12.97,47.84626,-54.09684
2017-09-13 15:00:00+00:00,316.4197,13.95,12.89,47.84626,-54.09684
2017-09-13 15:10:00+00:00,325.4797,13.94,12.81,47.84626,-54.09684
2017-09-13 15:20:00+00:00,330.7729,13.95,12.97,47.84626,-54.09684
2017-09-13 15:30:00+00:00,335.443,13.92,12.97,47.84626,-54.09684
2017-09-13 15:40:00+00:00,339.9612,13.9,12.97,47.84626,-54.09684
2017-09-13 15:50:00+00:00,338.8063,13.8,12.97,47.84626,-54.09684
2017-09-13 16:00:00+00:00,337.8063,13.82,12.89,47.84626,-54.09684
2017-09-13 16:10:00+00:00,343.6763,13.83,12.81,47.84626,-54.09684
2017-09-13 16:20:00+00:00,347.7161,13.94,12.89,47.84626,-54.09684
2017-09-13 16:30:00+00:00,343.6646,13.96,12.97,47.84626,-54.09684
2017-09-13 16:40:00+00:00,345.5596,13.96,12.97,47.84626,-54.09684
2017-09-13 16:50:00+00:00,353.003,14.0,13.05,47.84626,-54.09684
2017-09-13 17:00:00+00:00,357.7547,14.0,12.97,47.84626,-54.09684
2017-09-13 17:10:00+00:00,357.0381,13.89,12.81,47.84626,-54.09684
2017-09-13 17:20:00+00:00,359.6062,13.87,12.97,47.84626,-54.09684
2017-09-13 17:30:00+00:00,363.0547,13.81,12.97,47.84626,-54.09684
2017-09-13 17:40:00+00:00,358.3262,13.83,12.97,47.84626,-54.09684
2017-09-13 17:50:00+00:00,354.1329,13.8,12.89,47.84626,-54.09684
2017-09-13 18:00:00+00:00,356.533,13.7,12.89,47.84626,-54.09684
2017-09-13 18:10:00+00:00,356.328,13.77,12.89,47.84626,-54.09684
2017-09-13 18:20:00+00:00,351.6829,13.7,12.97,47.84626,-54.09684
2017-09-13 18:30:00+00:00,351.7029,13.7,12.97,47.84626,-54.09684
2017-09-13 18:40:00+00:00,351.0447,13.79,12.97,47.84626,-54.09684
2017-09-13 18:50:00+00:00,342.8879,13.85,12.97,47.84626,-54.09684
2017-09-13 19:00:00+00:00,337.163,13.9,12.89,47.84626,-54.09684
2017-09-13 19:10:00+00:00,336.1314,13.9,12.81,47.84626,-54.09684
2017-09-13 19:20:00+00:00,325.313,13.93,12.81,47.84626,-54.09684
2017-09-13 19:30:00+00:00,316.3947,13.92,12.81,47.84626,-54.09684
2017-09-13 19:40:00+00:00,313.1047,13.96,12.89,47.84626,-54.09684
2017-09-13 19:50:00+00:00,305.4113,14.0,12.89,47.84626,-54.09684
2017-09-13 20:00:00+00:00,289.7448,14.0,12.81,47.84626,-54.09684
2017-09-13 20:10:00+00:00,282.8381,13.9,12.73,47.84626,-54.09684
2017-09-13 20:20:00+00:00,283.4264,13.96,12.81,47.84626,-54.09684
2017-09-13 20:30:00+00:00,277.2064,14.04,12.81,47.84626,-54.09684
2017-09-13 20:40:00+00:00,264.9947,14.03,12.81,47.84626,-54.09684
2017-09-13 20:50:00+00:00,260.7346,14.0,12.81,47.84626,-54.09684
2017-09-13 21:00:00+00:00,257.4264,14.04,12.73,47.84626,-54.09684
2017-09-13 21:10:00+00:00,248.6464,14.08,12.65,47.84626,-54.09684
2017-09-13 21:20:00+00:00,241.9797,14.06,12.73,47.84626,-54.09684
2017-09-13 21:30:00+00:00,240.4165,14.1,12.73,47.84626,-54.09684
2017-09-13 21:40:00+00:00,237.7864,14.09,12.73,47.84626,-54.09684
2017-09-13 21:50:00+00:00,232.0481,14.1,12.73,47.84626,-54.09684
2017-09-13 22:00:00+00:00,229.2513,14.1,12.65,47.84626,-54.09684
2017-09-13 22:10:00+00:00,230.8164,14.08,12.65,47.84626,-54.09684
2017-09-13 22:20:00+00:00,229.5948,14.1,12.65,47.84626,-54.09684
2017-09-13 22:30:00+00:00,226.8181,14.1,12.65,47.84626,-54.09684
2017-09-13 22:40:00+00:00,227.6381,14.0,12.65,47.84626,-54.09684
2017-09-13 22:50:00+00:00,230.5748,14.1,12.65,47.84626,-54.09684
2017-09-13 23:00:00+00:00,233.8564,14.05,12.65,47.84626,-54.09684
2017-09-13 23:10:00+00:00,236.9615,13.93,12.65,47.84626,-54.09684
2017-09-13 23:20:00+00:00,238.7748,13.99,12.65,47.84626,-54.09684
2017-09-13 23:30:00+00:00,238.3348,13.94,12.65,47.84626,-54.09684
2017-09-13 23:40:00+00:00,235.5815,13.9,12.65,47.84626,-54.09684
2017-09-13 23:50:00+00:00,235.8848,13.86,12.65,47.84626,-54.09684
